FW9685 Weather Reports


time (UTC)temp
C
wind
direction
speed
KPH
gust
KPH
rain 1hr
cm
rain 24hr
cm
rain mn
cm
humidity
%
barometer
mb
20260510164558 29 219 11.3 32.2 0.00 0.00 0.00 32 1014.0
20260510163056 28 216 20.9 30.6 0.00 0.00 0.00 34 1013.8
20260510161553 28 257 14.5 35.4 0.00 0.00 0.00 35 1013.8
20260510160108 28 230 25.7 37.0 0.00 0.00 0.00 34 1013.6
20260510154619 27 198 25.7 37.0 0.00 0.00 0.00 40 1013.2
20260510153102 26 195 24.1 40.2 0.00 0.00 0.00 44 1013.0
20260510151553 26 188 22.5 41.8 0.00 0.00 0.00 46 1013.1
20260510150110 26 188 16.1 33.8 0.00 0.00 0.00 50 1013.1
20260510144616 25 172 14.5 32.2 0.00 0.00 0.00 54 1013.0
20260510143053 24 175 16.1 30.6 0.00 0.00 0.00 55 1012.8
20260510141551 23 178 16.1 29.0 0.00 0.00 0.00 57 1012.5
20260510140056 23 185 17.7 30.6 0.00 0.00 0.00 59 1012.2
20260510134553 22 184 22.5 37.0 0.00 0.00 0.00 60 1012.4
20260510133058 22 200 25.7 35.4 0.00 0.00 0.00 60 1012.1
20260510131551 22 199 19.3 33.8 0.00 0.00 0.00 62 1011.8
20260510130056 21 195 17.7 30.6 0.00 0.00 0.00 63 1011.7
20260510124559 21 184 16.1 24.1 0.00 0.00 0.00 65 1011.6
20260510123056 20 167 11.3 22.5 0.00 0.00 0.00 66 1011.5
20260510121552 20 178 12.9 24.1 0.00 0.00 0.00 66 1011.2
20260510120052 20 173 12.9 20.9 0.00 0.00 0.00 65 1011.1
20260510114554 20 179 11.3 22.5 0.00 0.00 0.00 65 1011.2
20260510113052 21 176 11.3 19.3 0.00 0.00 0.00 65 1011.0
20260510111553 20 179 12.9 22.5 0.00 0.00 0.00 65 1010.8
20260510110053 21 194 16.1 25.7 0.00 0.00 0.00 63 1010.8
20260510104601 21 181 14.5 25.7 0.00 0.00 0.00 62 1010.7
20260510103057 21 178 14.5 25.7 0.00 0.00 0.00 62 1010.6
20260510101603 22 175 16.1 30.6 0.00 0.00 0.00 60 1010.4
20260510100055 22 176 20.9 37.0 0.00 0.00 0.00 59 1010.4
20260510094600 22 200 20.9 35.4 0.00 0.00 0.00 59 1010.5
20260510093052 22 190 25.7 45.1 0.00 0.00 0.00 58 1010.3
20260510091551 22 191 25.7 45.1 0.00 0.00 0.00 57 1010.3
20260510090053 22 181 25.7 35.4 0.00 0.00 0.00 56 1010.5
20260510084601 22 189 29.0 41.8 0.00 0.00 0.00 55 1010.4
20260510083114 22 191 25.7 43.5 0.00 0.00 0.00 54 1010.4
20260510081611 22 186 20.9 33.8 0.00 0.00 0.00 53 1010.6
20260510080050 23 187 22.5 38.6 0.00 0.00 0.00 52 1010.7
20260510074553 23 182 20.9 32.2 0.00 0.00 0.00 52 1010.8
20260510073055 23 188 22.5 40.2 0.00 0.00 0.00 50 1010.9
20260510071555 23 187 20.9 37.0 0.00 0.00 0.00 49 1011.1
20260510070054 23 180 19.3 32.2 0.00 0.00 0.00 47 1011.1
20260510064554 23 169 17.7 32.2 0.00 0.00 0.00 45 1011.2
20260510063052 24 168 16.1 29.0 0.00 0.00 0.00 43 1011.3
20260510061601 24 177 17.7 30.6 0.00 0.00 0.00 42 1011.4
20260510060054 25 187 17.7 29.0 0.00 0.00 0.00 41 1011.2
20260510054556 25 178 16.1 33.8 0.00 0.00 0.00 40 1011.1
20260510053058 25 165 19.3 33.8 0.00 0.00 0.00 39 1011.1
20260510051557 25 178 19.3 30.6 0.00 0.00 0.00 39 1011.2
20260510050059 25 160 17.7 29.0 0.00 0.00 0.00 37 1011.2
20260510044552 26 158 17.7 33.8 0.00 0.00 0.00 35 1011.3
20260510043055 26 159 16.1 32.2 0.00 0.00 0.00 32 1011.3
20260510041559 26 181 14.5 25.7 0.00 0.00 0.00 30 1011.2
20260510040105 26 183 17.7 30.6 0.00 0.00 0.00 27 1011.1
20260510034604 27 169 14.5 27.4 0.00 0.00 0.00 26 1011.0
20260510033100 27 168 17.7 27.4 0.00 0.00 0.00 26 1010.9
20260510031610 27 156 16.1 27.4 0.00 0.00 0.00 26 1010.8
20260510030106 27 165 20.9 29.0 0.00 0.00 0.00 26 1010.6
20260510024559 28 161 16.1 27.4 0.00 0.00 0.00 26 1010.6
20260510023102 28 161 19.3 30.6 0.00 0.00 0.00 25 1010.5
20260510021555 28 161 19.3 25.7 0.00 0.00 0.00 24 1010.4
20260510020053 29 159 17.7 25.7 0.00 0.00 0.00 22 1010.4
20260510014600 30 169 16.1 24.1 0.00 0.00 0.00 18 1009.9
20260510013109 30 165 16.1 22.5 0.00 0.00 0.00 17 1010.0
20260510011553 31 169 11.3 22.5 0.00 0.00 0.00 16 1009.6
20260510010055 31 180 14.5 24.1 0.00 0.00 0.00 15 1009.8
20260510004558 32 177 11.3 20.9 0.00 0.00 0.00 14 1009.9
20260510003054 32 180 11.3 19.3 0.00 0.00 0.00 13 1010.0
20260510001555 32 198 9.7 20.9 0.00 0.00 0.00 14 1010.1
20260510000054 32 161 9.7 25.7 0.00 0.00 0.00 14 1010.2
20260509234556 32 171 12.9 24.1 0.00 0.00 0.00 13 1010.4
20260509233108 32 160 6.4 17.7 0.00 0.00 0.00 12 1010.3
20260509231559 33 232 20.9 27.4 0.00 0.00 0.00 13 1010.4
20260509230053 32 204 9.7 24.1 0.00 0.00 0.00 14 1010.5
20260509224553 32 237 12.9 29.0 0.00 0.00 0.00 13 1010.7
20260509223053 32 172 9.7 17.7 0.00 0.00 0.00 14 1010.8
20260509221554 32 242 12.9 22.5 0.00 0.00 0.00 13 1011.0
20260509220056 32 246 11.3 27.4 0.00 0.00 0.00 15 1011.1
20260509214555 32 205 14.5 29.0 0.00 0.00 0.00 14 1011.1
20260509213057 32 256 12.9 22.5 0.00 0.00 0.00 16 1011.2
20260509211556 32 178 20.9 37.0 0.00 0.00 0.00 17 1011.4
20260509210106 32 185 16.1 35.4 0.00 0.00 0.00 15 1011.6
20260509204603 32 214 17.7 32.2 0.00 0.00 0.00 19 1011.7
20260509203055 32 219 17.7 32.2 0.00 0.00 0.00 20 1012.1
20260509201600 31 167 17.7 32.2 0.00 0.00 0.00 20 1012.2
20260509200108 31 207 11.3 32.2 0.00 0.00 0.00 21 1012.4
20260509194555 31 202 11.3 30.6 0.00 0.00 0.00 23 1012.7
20260509193058 30 171 9.7 25.7 0.00 0.00 0.00 24 1012.9
20260509191604 30 220 17.7 29.0 0.00 0.00 0.00 25 1013.1
20260509184652 30 176 12.9 25.7 0.00 0.00 0.00 24 1013.4
20260509183101 30 235 16.1 29.0 0.00 0.00 0.00 27 1013.7
20260509181551 29 200 9.7 30.6 0.00 0.00 0.00 29 1013.7
20260509180108 29 213 12.9 29.0 0.00 0.00 0.00 29 1013.7
20260509174554 28 219 12.9 27.4 0.00 0.00 0.00 29 1013.9
20260509173057 28 195 6.4 24.1 0.00 0.00 0.00 33 1014.0
20260509171552 28 170 12.9 22.5 0.00 0.00 0.00 34 1014.2